User: anonymous   Login
Location: Columbia
(38.9520°N, 92.3340°W)
Time: 13:40:08
(UTC-06:00)
Language:

Cosmos 158 Rocket - Orbit

View from above orbital plane
View from above orbital plane
View from above satellite
View from above satellite

Ground track
Ground track

The orbit data is extracted from the following two-line orbital elements,

1 02802U 67045B   15032.18016717  .00000322  00000-0  10110-3 0  6727
2 02802 074.0152 340.3964 0068015 243.8450 115.5701 14.43361677503873
Epoch (UTC): 01 February 2015 04:19:26
Eccentricity: 0.0068015
inclination: 74.0152°
perigee height: 699 km
apogee height: 796 km
right ascension of ascending node: 340.3964°
argument of perigee: 243.8450°
revolutions per day: 14.43361677
mean anomaly at epoch: 115.5701°
orbit number at epoch: 50387

The dashed part of the orbit path shows where the satellite is in the earth's shadow,  

DLR